Year,Month,Day,Hour,Minute,Value (Times are PST for temperature in C)
2020,04,19,00,00,9.60
2020,04,19,00,01,9.60
2020,04,19,00,02,9.60
2020,04,19,00,03,9.60
2020,04,19,00,04,9.60
2020,04,19,00,05,9.60
2020,04,19,00,06,9.70
2020,04,19,00,07,9.70
2020,04,19,00,08,9.70
2020,04,19,00,09,9.70
2020,04,19,00,10,9.60
2020,04,19,00,11,9.60
2020,04,19,00,12,9.60
2020,04,19,00,13,9.60
2020,04,19,00,14,9.60
2020,04,19,00,15,9.60
2020,04,19,00,16,9.60
2020,04,19,00,17,9.60
2020,04,19,00,18,9.50
2020,04,19,00,19,9.50
2020,04,19,00,20,9.40
2020,04,19,00,21,9.40
2020,04,19,00,22,9.40
2020,04,19,00,23,9.40
2020,04,19,00,24,9.40
2020,04,19,00,25,9.40
2020,04,19,00,26,9.50
2020,04,19,00,27,9.50
2020,04,19,00,28,9.50
2020,04,19,00,29,9.50
2020,04,19,00,30,9.40
2020,04,19,00,31,9.40
2020,04,19,00,32,9.40
2020,04,19,00,33,9.40
2020,04,19,00,34,9.40
2020,04,19,00,35,9.40
2020,04,19,00,36,9.40
2020,04,19,00,37,9.40
2020,04,19,00,38,9.40
2020,04,19,00,39,9.40
2020,04,19,00,40,9.40
2020,04,19,00,41,9.40
2020,04,19,00,42,9.40
2020,04,19,00,43,9.40
2020,04,19,00,44,9.50
2020,04,19,00,45,9.50
2020,04,19,00,46,9.50
2020,04,19,00,47,9.50
2020,04,19,00,48,9.50
2020,04,19,00,49,9.50
2020,04,19,00,50,9.50
2020,04,19,00,51,9.50
2020,04,19,00,52,9.50
2020,04,19,00,53,9.50
2020,04,19,00,54,9.50
2020,04,19,00,55,9.50
2020,04,19,00,56,9.50
2020,04,19,00,57,9.40
2020,04,19,00,58,9.40
2020,04,19,00,59,9.40
2020,04,19,01,00,9.40
2020,04,19,01,01,9.40
2020,04,19,01,02,9.40
2020,04,19,01,03,9.40
2020,04,19,01,04,9.40
2020,04,19,01,05,9.40
2020,04,19,01,06,9.40
2020,04,19,01,07,9.40
2020,04,19,01,08,9.40
2020,04,19,01,09,9.30
2020,04,19,01,10,9.30
2020,04,19,01,11,9.30
2020,04,19,01,12,9.30
2020,04,19,01,13,9.30
2020,04,19,01,14,9.30
2020,04,19,01,15,9.30
2020,04,19,01,16,9.30
2020,04,19,01,17,9.30
2020,04,19,01,18,9.30
2020,04,19,01,19,9.30
2020,04,19,01,20,9.30
2020,04,19,01,21,9.20
2020,04,19,01,22,9.20
2020,04,19,01,23,9.20
2020,04,19,01,24,9.20
2020,04,19,01,25,9.20
2020,04,19,01,26,9.20
2020,04,19,01,27,9.20
2020,04,19,01,28,9.20
2020,04,19,01,29,9.20
2020,04,19,01,30,9.20
2020,04,19,01,31,9.20
2020,04,19,01,32,9.20
2020,04,19,01,33,9.20
2020,04,19,01,34,9.20
2020,04,19,01,35,9.20
2020,04,19,01,36,9.20
2020,04,19,01,37,9.20
2020,04,19,01,38,9.20
2020,04,19,01,39,9.20
2020,04,19,01,40,9.20
2020,04,19,01,41,9.20
2020,04,19,01,42,9.20
2020,04,19,01,43,9.20
2020,04,19,01,44,9.20
2020,04,19,01,45,9.20
2020,04,19,01,46,9.20
2020,04,19,01,47,9.20
2020,04,19,01,48,9.20
2020,04,19,01,49,9.20
2020,04,19,01,50,9.20
2020,04,19,01,51,9.20
2020,04,19,01,52,9.20
2020,04,19,01,53,9.20
2020,04,19,01,54,9.20
2020,04,19,01,55,9.20
2020,04,19,01,56,9.20
2020,04,19,01,57,9.30
2020,04,19,01,58,9.30
2020,04,19,01,59,9.30
2020,04,19,02,00,9.30
2020,04,19,02,01,9.30
2020,04,19,02,02,9.30
2020,04,19,02,03,9.30
2020,04,19,02,04,9.30
2020,04,19,02,05,9.30
2020,04,19,02,06,9.20
2020,04,19,02,07,9.20
2020,04,19,02,08,9.20
2020,04,19,02,09,9.20
2020,04,19,02,10,9.20
2020,04,19,02,11,9.10
2020,04,19,02,12,9.10
2020,04,19,02,13,9.10
2020,04,19,02,14,9.00
2020,04,19,02,15,9.00
2020,04,19,02,16,9.00
2020,04,19,02,17,9.00
2020,04,19,02,18,9.00
2020,04,19,02,19,9.00
2020,04,19,02,20,9.00
2020,04,19,02,21,9.00
2020,04,19,02,22,9.00
2020,04,19,02,23,9.00
2020,04,19,02,24,9.00
2020,04,19,02,25,9.00
2020,04,19,02,26,9.00
2020,04,19,02,27,9.00
2020,04,19,02,28,9.00
2020,04,19,02,29,9.00
2020,04,19,02,30,8.90
2020,04,19,02,31,8.90
2020,04,19,02,32,8.90
2020,04,19,02,33,8.80
2020,04,19,02,34,8.80
2020,04,19,02,35,8.70
2020,04,19,02,36,8.70
2020,04,19,02,37,8.70
2020,04,19,02,38,8.70
2020,04,19,02,39,8.60
2020,04,19,02,40,8.60
2020,04,19,02,41,8.60
2020,04,19,02,42,8.60
2020,04,19,02,43,8.50
2020,04,19,02,44,8.50
2020,04,19,02,45,8.40
2020,04,19,02,46,8.30
2020,04,19,02,47,8.30
2020,04,19,02,48,8.30
2020,04,19,02,49,8.20
2020,04,19,02,50,8.20
2020,04,19,02,51,8.20
2020,04,19,02,52,8.10
2020,04,19,02,53,8.10
2020,04,19,02,54,8.00
2020,04,19,02,55,8.00
2020,04,19,02,56,7.90
2020,04,19,02,57,7.90
2020,04,19,02,58,7.90
2020,04,19,02,59,7.80
2020,04,19,03,00,7.80
2020,04,19,03,01,7.80
2020,04,19,03,02,7.70
2020,04,19,03,03,7.70
2020,04,19,03,04,7.70
2020,04,19,03,05,7.60
2020,04,19,03,06,7.60
2020,04,19,03,07,7.60
2020,04,19,03,08,7.60
2020,04,19,03,09,7.60
2020,04,19,03,10,7.60
2020,04,19,03,11,7.60
2020,04,19,03,12,7.50
2020,04,19,03,13,7.50
2020,04,19,03,14,7.50
2020,04,19,03,15,7.40
2020,04,19,03,16,7.40
2020,04,19,03,17,7.40
2020,04,19,03,18,7.40
2020,04,19,03,19,7.40
2020,04,19,03,20,7.40
2020,04,19,03,21,7.30
2020,04,19,03,22,7.30
2020,04,19,03,23,7.30
2020,04,19,03,24,7.20
2020,04,19,03,25,7.20
2020,04,19,03,26,7.20
2020,04,19,03,27,7.10
2020,04,19,03,28,7.10
2020,04,19,03,29,7.10
2020,04,19,03,30,7.10
2020,04,19,03,31,7.10
2020,04,19,03,32,7.10
2020,04,19,03,33,7.10
2020,04,19,03,34,7.10
2020,04,19,03,35,7.00
2020,04,19,03,36,7.00
2020,04,19,03,37,7.00
2020,04,19,03,38,7.00
2020,04,19,03,39,7.00
2020,04,19,03,40,7.00
2020,04,19,03,41,7.00
2020,04,19,03,42,7.00
2020,04,19,03,43,6.90
2020,04,19,03,44,6.90
2020,04,19,03,45,6.90
2020,04,19,03,46,6.90
2020,04,19,03,47,6.90
2020,04,19,03,48,6.90
2020,04,19,03,49,6.90
2020,04,19,03,50,6.90
2020,04,19,03,51,6.90
2020,04,19,03,52,6.90
2020,04,19,03,53,6.90
2020,04,19,03,54,6.90
2020,04,19,03,55,6.90
2020,04,19,03,56,6.90
2020,04,19,03,57,6.90
2020,04,19,03,58,6.90
2020,04,19,03,59,6.90
2020,04,19,04,00,6.90
2020,04,19,04,01,6.90
2020,04,19,04,02,6.90
2020,04,19,04,03,6.80
2020,04,19,04,04,6.80
2020,04,19,04,05,6.80
2020,04,19,04,06,6.80
2020,04,19,04,07,6.80
2020,04,19,04,08,6.80
2020,04,19,04,09,6.80
2020,04,19,04,10,6.80
2020,04,19,04,11,6.80
2020,04,19,04,12,6.80
2020,04,19,04,13,6.80
2020,04,19,04,14,6.80
2020,04,19,04,15,6.70
2020,04,19,04,16,6.70
2020,04,19,04,17,6.70
2020,04,19,04,18,6.70
2020,04,19,04,19,6.70
2020,04,19,04,20,6.70
2020,04,19,04,21,6.70
2020,04,19,04,22,6.60
2020,04,19,04,23,6.60
2020,04,19,04,24,6.60
2020,04,19,04,25,6.60
2020,04,19,04,26,6.60
2020,04,19,04,27,6.60
2020,04,19,04,28,6.60
2020,04,19,04,29,6.60
2020,04,19,04,30,6.50
2020,04,19,04,31,6.50
2020,04,19,04,32,6.50
2020,04,19,04,33,6.50
2020,04,19,04,34,6.40
2020,04,19,04,35,6.40
2020,04,19,04,36,6.30
2020,04,19,04,37,6.30
2020,04,19,04,38,6.30
2020,04,19,04,39,6.30
2020,04,19,04,40,6.30
2020,04,19,04,41,6.30
2020,04,19,04,42,6.30
2020,04,19,04,43,6.20
2020,04,19,04,44,6.20
2020,04,19,04,45,6.20
2020,04,19,04,46,6.20
2020,04,19,04,47,6.20
2020,04,19,04,48,6.20
2020,04,19,04,49,6.20
2020,04,19,04,50,6.20
2020,04,19,04,51,6.20
2020,04,19,04,52,6.20
2020,04,19,04,53,6.30
2020,04,19,04,54,6.30
2020,04,19,04,55,6.30
2020,04,19,04,56,6.30
2020,04,19,04,57,6.30
2020,04,19,04,58,6.30
2020,04,19,04,59,6.40
2020,04,19,05,00,6.60
2020,04,19,05,01,6.70
2020,04,19,05,02,6.70
2020,04,19,05,03,6.70
2020,04,19,05,04,6.70
2020,04,19,05,05,6.70
2020,04,19,05,06,6.70
2020,04,19,05,07,6.70
2020,04,19,05,08,6.70
2020,04,19,05,09,6.70
2020,04,19,05,10,6.70
2020,04,19,05,11,6.70
2020,04,19,05,12,6.70
2020,04,19,05,13,6.70
2020,04,19,05,14,6.70
2020,04,19,05,15,6.70
2020,04,19,05,16,6.70
2020,04,19,05,17,6.70
2020,04,19,05,18,6.70
2020,04,19,05,19,6.70
2020,04,19,05,20,6.70
2020,04,19,05,21,6.60
2020,04,19,05,22,6.60
2020,04,19,05,23,6.60
2020,04,19,05,24,6.60
2020,04,19,05,25,6.60
2020,04,19,05,26,6.60
2020,04,19,05,27,6.60
2020,04,19,05,28,6.50
2020,04,19,05,29,6.50
2020,04,19,05,30,6.50
2020,04,19,05,31,6.40
2020,04,19,05,32,6.40
2020,04,19,05,33,6.30
2020,04,19,05,34,6.30
2020,04,19,05,35,6.30
2020,04,19,05,36,6.30
2020,04,19,05,37,6.20
2020,04,19,05,38,6.20
2020,04,19,05,39,6.20
2020,04,19,05,40,6.20
2020,04,19,05,41,6.20
2020,04,19,05,42,6.10
2020,04,19,05,43,6.10
2020,04,19,05,44,6.10
2020,04,19,05,45,6.10
2020,04,19,05,46,6.10
2020,04,19,05,47,6.10
2020,04,19,05,48,6.10
2020,04,19,05,49,6.10
2020,04,19,05,50,6.10
2020,04,19,05,51,6.10
2020,04,19,05,52,6.10
2020,04,19,05,53,6.10
2020,04,19,05,54,6.10
2020,04,19,05,55,6.10
2020,04,19,05,56,6.00
2020,04,19,05,57,6.00
2020,04,19,05,58,6.00
2020,04,19,05,59,6.00
2020,04,19,06,00,6.00
2020,04,19,06,01,6.00
2020,04,19,06,02,6.00
2020,04,19,06,03,6.00
2020,04,19,06,04,6.00
2020,04,19,06,05,5.90
2020,04,19,06,06,5.90
2020,04,19,06,07,5.90
2020,04,19,06,08,5.90
2020,04,19,06,09,5.90
2020,04,19,06,10,5.90
2020,04,19,06,11,5.90
2020,04,19,06,12,5.80
2020,04,19,06,13,5.80
2020,04,19,06,14,5.80
2020,04,19,06,15,5.80
2020,04,19,06,16,5.90
2020,04,19,06,17,5.90
2020,04,19,06,18,5.90
2020,04,19,06,19,5.90
2020,04,19,06,20,5.90
2020,04,19,06,21,5.90
2020,04,19,06,22,6.00
2020,04,19,06,23,6.10
2020,04,19,06,24,6.10
2020,04,19,06,25,6.20
2020,04,19,06,26,6.20
2020,04,19,06,27,6.20
2020,04,19,06,28,6.20
2020,04,19,06,29,6.20
2020,04,19,06,30,6.20
2020,04,19,06,31,6.20
2020,04,19,06,32,6.20
2020,04,19,06,33,6.20
2020,04,19,06,34,6.20
2020,04,19,06,35,6.20
2020,04,19,06,36,6.20
2020,04,19,06,37,6.20
2020,04,19,06,38,6.20
2020,04,19,06,39,6.20
2020,04,19,06,40,6.20
2020,04,19,06,41,6.20
2020,04,19,06,42,6.30
2020,04,19,06,43,6.30
2020,04,19,06,44,6.30
2020,04,19,06,45,6.30
2020,04,19,06,46,6.30
2020,04,19,06,47,6.30
2020,04,19,06,48,6.30
2020,04,19,06,49,6.30
2020,04,19,06,50,6.30
2020,04,19,06,51,6.30
2020,04,19,06,52,6.30
2020,04,19,06,53,6.30
2020,04,19,06,54,6.30
2020,04,19,06,55,6.30
2020,04,19,06,56,6.30
2020,04,19,06,57,6.30
2020,04,19,06,58,6.30
2020,04,19,06,59,6.30
2020,04,19,07,00,6.30
2020,04,19,07,01,6.30
2020,04,19,07,02,6.30
2020,04,19,07,03,6.30
2020,04,19,07,04,6.30
2020,04,19,07,05,6.40
2020,04,19,07,06,6.40
2020,04,19,07,07,6.40
2020,04,19,07,08,6.40
2020,04,19,07,09,6.40
2020,04,19,07,10,6.50
2020,04,19,07,11,6.50
2020,04,19,07,12,6.60
2020,04,19,07,13,6.60
2020,04,19,07,14,6.60
2020,04,19,07,15,6.70
2020,04,19,07,16,6.70
2020,04,19,07,17,6.70
2020,04,19,07,18,6.70
2020,04,19,07,19,6.80
2020,04,19,07,20,6.80
2020,04,19,07,21,6.80
2020,04,19,07,22,6.80
2020,04,19,07,23,6.80
2020,04,19,07,24,6.80
2020,04,19,07,25,6.90
2020,04,19,07,26,6.90
2020,04,19,07,27,7.00
2020,04,19,07,28,7.10
2020,04,19,07,29,7.10
2020,04,19,07,30,7.10
2020,04,19,07,31,7.20
2020,04,19,07,32,7.30
2020,04,19,07,33,7.30
2020,04,19,07,34,7.30
2020,04,19,07,35,7.40
2020,04,19,07,36,7.40
2020,04,19,07,37,7.50
2020,04,19,07,38,7.50
2020,04,19,07,39,7.60
2020,04,19,07,40,7.60
2020,04,19,07,41,7.70
2020,04,19,07,42,7.70
2020,04,19,07,43,7.80
2020,04,19,07,44,7.80
2020,04,19,07,45,7.80
2020,04,19,07,46,7.80
2020,04,19,07,47,7.90
2020,04,19,07,48,7.90
2020,04,19,07,49,7.90
2020,04,19,07,50,8.00
2020,04,19,07,51,8.00
2020,04,19,07,52,8.10
2020,04,19,07,53,8.10
2020,04,19,07,54,8.20
2020,04,19,07,55,8.20
2020,04,19,07,56,8.30
2020,04,19,07,57,8.30
2020,04,19,07,58,8.30
2020,04,19,07,59,8.30
2020,04,19,08,00,8.40
2020,04,19,08,01,8.40
2020,04,19,08,02,8.40
2020,04,19,08,03,8.50
2020,04,19,08,04,8.60
2020,04,19,08,05,8.70
2020,04,19,08,06,8.90
2020,04,19,08,07,9.00
2020,04,19,08,08,9.20
2020,04,19,08,09,9.30
2020,04,19,08,10,9.40
2020,04,19,08,11,9.60
2020,04,19,08,12,9.70
2020,04,19,08,13,9.80
2020,04,19,08,14,9.90
2020,04,19,08,15,10.00
2020,04,19,08,16,10.00
2020,04,19,08,17,10.10
2020,04,19,08,18,10.20
2020,04,19,08,19,10.20
2020,04,19,08,20,10.40
2020,04,19,08,21,10.50
2020,04,19,08,22,10.60
2020,04,19,08,23,10.80
2020,04,19,08,24,10.90
2020,04,19,08,25,11.00
2020,04,19,08,26,11.10
2020,04,19,08,27,11.20
2020,04,19,08,28,11.30
2020,04,19,08,29,11.30
2020,04,19,08,30,11.40
2020,04,19,08,31,11.40
2020,04,19,08,32,11.40
2020,04,19,08,33,11.50
2020,04,19,08,34,11.60
2020,04,19,08,35,11.60
2020,04,19,08,36,11.70
2020,04,19,08,37,11.80
2020,04,19,08,38,11.80
2020,04,19,08,39,11.90
2020,04,19,08,40,12.00
2020,04,19,08,41,12.10
2020,04,19,08,42,12.10
2020,04,19,08,43,12.10
2020,04,19,08,44,12.10
2020,04,19,08,45,12.10
2020,04,19,08,46,12.20
2020,04,19,08,47,12.20
2020,04,19,08,48,12.30
2020,04,19,08,49,12.30
2020,04,19,08,50,12.40
2020,04,19,08,51,12.30
2020,04,19,08,52,12.10
2020,04,19,08,53,12.00
2020,04,19,08,54,11.80
2020,04,19,08,55,11.70
2020,04,19,08,56,11.60
2020,04,19,08,57,11.50
2020,04,19,08,58,11.40
2020,04,19,08,59,11.30
2020,04,19,09,00,11.20
2020,04,19,09,01,11.20
2020,04,19,09,02,11.20
2020,04,19,09,03,11.20
2020,04,19,09,04,11.20
2020,04,19,09,05,11.20
2020,04,19,09,06,11.20
2020,04,19,09,07,11.20
2020,04,19,09,08,11.20
2020,04,19,09,09,11.20
2020,04,19,09,10,11.20
2020,04,19,09,11,11.20
2020,04,19,09,12,11.20
2020,04,19,09,13,11.20
2020,04,19,09,14,11.20
2020,04,19,09,15,11.20
2020,04,19,09,16,11.20
2020,04,19,09,17,11.20
2020,04,19,09,18,11.20
2020,04,19,09,19,11.20
2020,04,19,09,20,11.20
2020,04,19,09,21,11.20
2020,04,19,09,22,11.20
2020,04,19,09,23,11.30
2020,04,19,09,24,11.30
2020,04,19,09,25,11.30
2020,04,19,09,26,11.40
2020,04,19,09,27,11.40
2020,04,19,09,28,11.50
2020,04,19,09,29,11.60
2020,04,19,09,30,11.60
2020,04,19,09,31,11.60
2020,04,19,09,32,11.70
2020,04,19,09,33,11.70
2020,04,19,09,34,11.70
2020,04,19,09,35,11.70
2020,04,19,09,36,11.70
2020,04,19,09,37,11.70
2020,04,19,09,38,11.70
2020,04,19,09,39,11.70
2020,04,19,09,40,11.70
2020,04,19,09,41,11.70
2020,04,19,09,42,11.70
2020,04,19,09,43,11.60
2020,04,19,09,44,11.60
2020,04,19,09,45,11.50
2020,04,19,09,46,11.50
2020,04,19,09,47,11.40
2020,04,19,09,48,11.40
2020,04,19,09,49,11.40
2020,04,19,09,50,11.40
2020,04,19,09,51,11.40
2020,04,19,09,52,11.50
2020,04,19,09,53,11.50
2020,04,19,09,54,11.50
2020,04,19,09,55,11.50
2020,04,19,09,56,11.50
2020,04,19,09,57,11.60
2020,04,19,09,58,11.60
2020,04,19,09,59,11.60
2020,04,19,10,00,11.70
2020,04,19,10,01,11.70
2020,04,19,10,02,11.80
2020,04,19,10,03,11.90
2020,04,19,10,04,11.90
2020,04,19,10,05,12.00
2020,04,19,10,06,12.10
2020,04,19,10,07,12.10
2020,04,19,10,08,12.10
2020,04,19,10,09,12.10
2020,04,19,10,10,12.10
2020,04,19,10,11,12.10
2020,04,19,10,12,12.20
2020,04,19,10,13,12.20
2020,04,19,10,14,12.30
2020,04,19,10,15,12.40
2020,04,19,10,16,12.50
2020,04,19,10,17,12.60
2020,04,19,10,18,12.70
2020,04,19,10,19,12.80
2020,04,19,10,20,13.00
2020,04,19,10,21,13.20
2020,04,19,10,22,13.30
2020,04,19,10,23,13.40
2020,04,19,10,24,13.50
2020,04,19,10,25,13.40
2020,04,19,10,26,13.30
2020,04,19,10,27,13.30
2020,04,19,10,28,13.20
2020,04,19,10,29,13.20
2020,04,19,10,30,13.10
2020,04,19,10,31,13.00
2020,04,19,10,32,12.80
2020,04,19,10,33,12.70
2020,04,19,10,34,12.60
2020,04,19,10,35,12.60
2020,04,19,10,36,12.50
2020,04,19,10,37,12.50
2020,04,19,10,38,12.40
2020,04,19,10,39,12.40
2020,04,19,10,40,12.50
2020,04,19,10,41,12.60
2020,04,19,10,42,12.60
2020,04,19,10,43,12.70
2020,04,19,10,44,12.70
2020,04,19,10,45,12.70
2020,04,19,10,46,12.70
2020,04,19,10,47,12.70
2020,04,19,10,48,12.60
2020,04,19,10,49,12.70
2020,04,19,10,50,12.80
2020,04,19,10,51,13.00
2020,04,19,10,52,13.10
2020,04,19,10,53,13.20
2020,04,19,10,54,13.30
2020,04,19,10,55,13.30
2020,04,19,10,56,13.20
2020,04,19,10,57,13.10
2020,04,19,10,58,13.10
2020,04,19,10,59,13.20
2020,04,19,11,00,13.20
2020,04,19,11,01,13.10
2020,04,19,11,02,13.10
2020,04,19,11,03,13.10
2020,04,19,11,04,13.20
2020,04,19,11,05,13.20
2020,04,19,11,06,13.20
2020,04,19,11,07,13.10
2020,04,19,11,08,13.00
2020,04,19,11,09,12.90
2020,04,19,11,10,12.80
2020,04,19,11,11,12.80
2020,04,19,11,12,12.80
2020,04,19,11,13,12.90
2020,04,19,11,14,12.90
2020,04,19,11,15,13.00
2020,04,19,11,16,13.00
2020,04,19,11,17,13.10
2020,04,19,11,18,13.10
2020,04,19,11,19,13.10
2020,04,19,11,20,13.10
2020,04,19,11,21,13.30
2020,04,19,11,22,13.40
2020,04,19,11,23,13.50
2020,04,19,11,24,13.60
2020,04,19,11,25,13.50
2020,04,19,11,26,13.40
2020,04,19,11,27,13.30
2020,04,19,11,28,13.20
2020,04,19,11,29,13.10
2020,04,19,11,30,13.10
2020,04,19,11,31,13.10
2020,04,19,11,32,13.10
2020,04,19,11,33,13.20
2020,04,19,11,34,13.30
2020,04,19,11,35,13.20
2020,04,19,11,36,13.10
2020,04,19,11,37,13.10
2020,04,19,11,38,13.20
2020,04,19,11,39,13.30
2020,04,19,11,40,13.30
2020,04,19,11,41,13.40
2020,04,19,11,42,13.40
2020,04,19,11,43,13.50
2020,04,19,11,44,13.60
2020,04,19,11,45,13.60
2020,04,19,11,46,13.70
2020,04,19,11,47,13.70
2020,04,19,11,48,13.80
2020,04,19,11,49,13.90
2020,04,19,11,50,14.00
2020,04,19,11,51,14.10
2020,04,19,11,52,14.00
2020,04,19,11,53,14.00
2020,04,19,11,54,14.00
2020,04,19,11,55,13.90
2020,04,19,11,56,13.80
2020,04,19,11,57,13.60
2020,04,19,11,58,13.50
2020,04,19,11,59,13.40
2020,04,19,12,00,13.40
2020,04,19,12,01,13.40
2020,04,19,12,02,13.40
2020,04,19,12,03,13.40
2020,04,19,12,04,13.50
2020,04,19,12,05,13.60
2020,04,19,12,06,13.60
2020,04,19,12,07,13.70
2020,04,19,12,08,13.70
2020,04,19,12,09,13.80
2020,04,19,12,10,13.80
2020,04,19,12,11,13.70
2020,04,19,12,12,13.60
2020,04,19,12,13,13.50
2020,04,19,12,14,13.40
2020,04,19,12,15,13.40
2020,04,19,12,16,13.40
2020,04,19,12,17,13.50
2020,04,19,12,18,13.50
2020,04,19,12,19,13.60
2020,04,19,12,20,13.70
2020,04,19,12,21,13.80
2020,04,19,12,22,13.80
2020,04,19,12,23,13.80
2020,04,19,12,24,13.80
2020,04,19,12,25,13.90
2020,04,19,12,26,13.90
2020,04,19,12,27,13.80
2020,04,19,12,28,13.90
2020,04,19,12,29,13.80
2020,04,19,12,30,13.80
2020,04,19,12,31,13.90
2020,04,19,12,32,13.90
2020,04,19,12,33,13.90
2020,04,19,12,34,13.80
2020,04,19,12,35,14.00
2020,04,19,12,36,14.00
2020,04,19,12,37,14.00
2020,04,19,12,38,14.10
2020,04,19,12,39,14.20
2020,04,19,12,40,14.30
2020,04,19,12,41,14.30
2020,04,19,12,42,14.30
2020,04,19,12,43,14.40
2020,04,19,12,44,14.50
2020,04,19,12,45,14.60
2020,04,19,12,46,14.60
2020,04,19,12,47,14.50
2020,04,19,12,48,14.40
2020,04,19,12,49,14.30
2020,04,19,12,50,14.30
2020,04,19,12,51,14.40
2020,04,19,12,52,14.50
2020,04,19,12,53,14.50
2020,04,19,12,54,14.50
2020,04,19,12,55,14.50
2020,04,19,12,56,14.30
2020,04,19,12,57,14.20
2020,04,19,12,58,14.20
2020,04,19,12,59,14.20
2020,04,19,13,00,14.30
2020,04,19,13,01,14.40
2020,04,19,13,02,14.40
2020,04,19,13,03,14.40
2020,04,19,13,04,14.50
2020,04,19,13,05,14.50
2020,04,19,13,06,14.40
2020,04,19,13,07,14.40
2020,04,19,13,08,14.40
2020,04,19,13,09,14.50
2020,04,19,13,10,14.60
2020,04,19,13,11,14.60
2020,04,19,13,12,14.70
2020,04,19,13,13,14.70
2020,04,19,13,14,14.60
2020,04,19,13,15,14.50
2020,04,19,13,16,14.50
2020,04,19,13,17,14.50
2020,04,19,13,18,14.50
2020,04,19,13,19,14.60
2020,04,19,13,20,14.70
2020,04,19,13,21,14.70
2020,04,19,13,22,14.50
2020,04,19,13,23,14.50
2020,04,19,13,24,14.40
2020,04,19,13,25,14.50
2020,04,19,13,26,14.60
2020,04,19,13,27,14.70
2020,04,19,13,28,14.70
2020,04,19,13,29,14.70
2020,04,19,13,30,14.80
2020,04,19,13,31,14.80
2020,04,19,13,32,14.80
2020,04,19,13,33,14.70
2020,04,19,13,34,14.70
2020,04,19,13,35,14.70
2020,04,19,13,36,14.80
2020,04,19,13,37,14.80
2020,04,19,13,38,14.80
2020,04,19,13,39,14.70
2020,04,19,13,40,14.80
2020,04,19,13,41,14.80
2020,04,19,13,42,14.90
2020,04,19,13,43,15.00
2020,04,19,13,44,15.10
2020,04,19,13,45,15.10
2020,04,19,13,46,15.10
2020,04,19,13,47,15.10
2020,04,19,13,48,15.10
2020,04,19,13,49,15.10
2020,04,19,13,50,15.20
2020,04,19,13,51,15.30
2020,04,19,13,52,15.30
2020,04,19,13,53,15.30
2020,04,19,13,54,15.10
2020,04,19,13,55,15.10
2020,04,19,13,56,15.20
2020,04,19,13,57,15.20
2020,04,19,13,58,15.20
2020,04,19,13,59,15.20
2020,04,19,14,00,15.20
2020,04,19,14,01,15.20
2020,04,19,14,02,15.30
2020,04,19,14,03,15.30
2020,04,19,14,04,15.30
2020,04,19,14,05,15.30
2020,04,19,14,06,15.30
2020,04,19,14,07,15.30
2020,04,19,14,08,15.30
2020,04,19,14,09,15.30
2020,04,19,14,10,15.30
2020,04,19,14,11,15.40
2020,04,19,14,12,15.50
2020,04,19,14,13,15.60
2020,04,19,14,14,15.60
2020,04,19,14,15,15.50
2020,04,19,14,16,15.40
2020,04,19,14,17,15.30
2020,04,19,14,18,15.30
2020,04,19,14,19,15.30
2020,04,19,14,20,15.30
2020,04,19,14,21,15.20
2020,04,19,14,22,15.20
2020,04,19,14,23,15.20
2020,04,19,14,24,15.30
2020,04,19,14,25,15.30
2020,04,19,14,26,15.40
2020,04,19,14,27,15.40
2020,04,19,14,28,15.30
2020,04,19,14,29,15.30
2020,04,19,14,30,15.30
2020,04,19,14,31,15.30
2020,04,19,14,32,15.30
2020,04,19,14,33,15.40
2020,04,19,14,34,15.50
2020,04,19,14,35,15.30
2020,04,19,14,36,15.30
2020,04,19,14,37,15.30
2020,04,19,14,38,15.40
2020,04,19,14,39,15.40
2020,04,19,14,40,15.50
2020,04,19,14,41,15.50
2020,04,19,14,42,15.40
2020,04,19,14,43,15.40
2020,04,19,14,44,15.40
2020,04,19,14,45,15.40
2020,04,19,14,46,15.40
2020,04,19,14,47,15.40
2020,04,19,14,48,15.40
2020,04,19,14,49,15.50
2020,04,19,14,50,15.60
2020,04,19,14,51,15.50
2020,04,19,14,52,15.50
2020,04,19,14,53,15.50
2020,04,19,14,54,15.70
2020,04,19,14,55,15.80
2020,04,19,14,56,15.90
2020,04,19,14,57,16.00
2020,04,19,14,58,15.90
2020,04,19,14,59,15.90
2020,04,19,15,00,15.80
2020,04,19,15,01,15.80
2020,04,19,15,02,15.70
2020,04,19,15,03,15.70
2020,04,19,15,04,15.70
2020,04,19,15,05,15.70
2020,04,19,15,06,15.80
2020,04,19,15,07,15.80
2020,04,19,15,08,15.80
2020,04,19,15,09,16.00
2020,04,19,15,10,16.10
2020,04,19,15,11,16.00
2020,04,19,15,12,16.00
2020,04,19,15,13,16.10
2020,04,19,15,14,16.20
2020,04,19,15,15,16.20
2020,04,19,15,16,16.20
2020,04,19,15,17,16.20
2020,04,19,15,18,16.10
2020,04,19,15,19,16.10
2020,04,19,15,20,16.20
2020,04,19,15,21,16.20
2020,04,19,15,22,16.20
2020,04,19,15,23,16.10
2020,04,19,15,24,16.10
2020,04,19,15,25,16.20
2020,04,19,15,26,16.30
2020,04,19,15,27,16.20
2020,04,19,15,28,16.20
2020,04,19,15,29,16.30
2020,04,19,15,30,16.30
2020,04,19,15,31,16.30
2020,04,19,15,32,16.20
2020,04,19,15,33,16.20
2020,04,19,15,34,16.30
2020,04,19,15,35,16.40
2020,04,19,15,36,16.30
2020,04,19,15,37,16.30
2020,04,19,15,38,16.30
2020,04,19,15,39,16.30
2020,04,19,15,40,16.30
2020,04,19,15,41,16.30
2020,04,19,15,42,16.40
2020,04,19,15,43,16.60
2020,04,19,15,44,16.70
2020,04,19,15,45,16.80
2020,04,19,15,46,16.80
2020,04,19,15,47,16.90
2020,04,19,15,48,17.00
2020,04,19,15,49,16.90
2020,04,19,15,50,16.80
2020,04,19,15,51,16.80
2020,04,19,15,52,16.80
2020,04,19,15,53,16.80
2020,04,19,15,54,16.90
2020,04,19,15,55,16.90
2020,04,19,15,56,17.00
2020,04,19,15,57,17.10
2020,04,19,15,58,17.10
2020,04,19,15,59,17.10
2020,04,19,16,00,17.10
2020,04,19,16,01,17.10
2020,04,19,16,02,17.20
2020,04,19,16,03,17.20
2020,04,19,16,04,17.20
2020,04,19,16,05,17.10
2020,04,19,16,06,17.10
2020,04,19,16,07,17.10
2020,04,19,16,08,17.20
2020,04,19,16,09,17.20
2020,04,19,16,10,17.30
2020,04,19,16,11,17.30
2020,04,19,16,12,17.30
2020,04,19,16,13,17.30
2020,04,19,16,14,17.30
2020,04,19,16,15,17.20
2020,04,19,16,16,17.20
2020,04,19,16,17,17.10
2020,04,19,16,18,17.00
2020,04,19,16,19,16.90
2020,04,19,16,20,16.90
2020,04,19,16,21,16.90
2020,04,19,16,22,17.00
2020,04,19,16,23,16.90
2020,04,19,16,24,16.90
2020,04,19,16,25,16.80
2020,04,19,16,26,16.90
2020,04,19,16,27,16.80
2020,04,19,16,28,16.60
2020,04,19,16,29,16.50
2020,04,19,16,30,16.40
2020,04,19,16,31,16.30
2020,04,19,16,32,16.40
2020,04,19,16,33,16.30
2020,04,19,16,34,16.40
2020,04,19,16,35,16.50
2020,04,19,16,36,16.60
2020,04,19,16,37,16.80
2020,04,19,16,38,16.90
2020,04,19,16,39,17.10
2020,04,19,16,40,17.10
2020,04,19,16,41,16.90
2020,04,19,16,42,16.80
2020,04,19,16,43,16.60
2020,04,19,16,44,16.50
2020,04,19,16,45,16.50
2020,04,19,16,46,16.40
2020,04,19,16,47,16.40
2020,04,19,16,48,16.40
2020,04,19,16,49,16.30
2020,04,19,16,50,16.40
2020,04,19,16,51,16.50
2020,04,19,16,52,16.50
2020,04,19,16,53,16.60
2020,04,19,16,54,16.70
2020,04,19,16,55,16.70
2020,04,19,16,56,16.70
2020,04,19,16,57,16.80
2020,04,19,16,58,16.80
2020,04,19,16,59,16.80
2020,04,19,17,00,16.80
2020,04,19,17,01,16.70
2020,04,19,17,02,16.60
2020,04,19,17,03,16.60
2020,04,19,17,04,16.50
2020,04,19,17,05,16.40
2020,04,19,17,06,16.30
2020,04,19,17,07,16.30
2020,04,19,17,08,16.30
2020,04,19,17,09,16.30
2020,04,19,17,10,16.40
2020,04,19,17,11,16.40
2020,04,19,17,12,16.40
2020,04,19,17,13,16.40
2020,04,19,17,14,16.40
2020,04,19,17,15,16.50
2020,04,19,17,16,16.50
2020,04,19,17,17,16.50
2020,04,19,17,18,16.60
2020,04,19,17,19,16.40
2020,04,19,17,20,16.30
2020,04,19,17,21,16.30
2020,04,19,17,22,16.30
2020,04,19,17,23,16.30
2020,04,19,17,24,16.30
2020,04,19,17,25,16.40
2020,04,19,17,26,16.40
2020,04,19,17,27,16.40
2020,04,19,17,28,16.50
2020,04,19,17,29,16.60
2020,04,19,17,30,16.60
2020,04,19,17,31,16.60
2020,04,19,17,32,16.50
2020,04,19,17,33,16.40
2020,04,19,17,34,16.40
2020,04,19,17,35,16.40
2020,04,19,17,36,16.40
2020,04,19,17,37,16.40
2020,04,19,17,38,16.40
2020,04,19,17,39,16.40
2020,04,19,17,40,16.40